Hot Springs, VA

4:23 AM EDT on September 20, 2019 (GMT -0400)
Ingalls

Weather History for KHSP - August, 2019

Change the Weather History Date:

Sunday, August 18, 2019

  Actual Average Record
Temperature  
Mean Temperature 74 °F -  
Max Temperature 82 °F 74 °F 82 °F (2019)
Min Temperature 66 °F 59 °F 53 °F (2013)
Cooling Degree Days 9    
Growing Degree Days 24 (Base 50)    
Moisture  
Dew Point 64 °F    
Average Humidity 75    
Maximum Humidity 94    
Minimum Humidity 51    
Precipitation  
Precipitation 0.00 in - - ()
Sea Level Pressure  
Sea Level Pressure 30.20 in    
Wind  
Wind Speed 5 mph (WSW)    
Max Wind Speed 12 mph    
Max Gust Speed -    
Visibility 10 miles    
Events Thunderstorm    
Averages and records for this station are not official NWS values.
T = Trace of Precipitation, MM = Missing Value Source: NWS Daily Summary

Daily Weather History Graph

Daily Weather History Graph

Search for Another Location

Airport or City:

Astronomy

Aug. 18, 2019 Rise Set
Actual Time 6:36 AM EDT 8:08 PM EDT
Civil Twilight 6:09 AM EDT 8:36 PM EDT
Nautical Twilight 5:35 AM EDT 9:09 PM EDT
Astronomical Twilight 5:00 AM EDT 9:45 PM EDT
Moon 10:05 PM EDT (8/18) 9:18 AM EDT (8/18)
Length of Visible Light 14h 27m
Length of Day
13h 31m
Waning Gibbous, 91% of the Moon is Illuminated
Aug 18
Waning Gibbous
Aug 23
Last Quarter
Aug 30
New
Sep 5
First Quarter
Sep 14
Full

Hourly Weather History & Observations

Time (EDT) Temp. Heat Index Dew Point Humidity Pressure Visibility Wind Dir Wind Speed Gust Speed Precip Events Conditions
12:15 AM 68.0 °F - 62.6 °F 83% 30.20 in 10.0 mi Calm Calm - N/A   Clear
12:33 AM 69.8 °F - 64.4 °F 83% 30.20 in 10.0 mi SW 8.1 mph - N/A   Clear
12:53 AM 68.0 °F - 64.4 °F 88% 30.19 in 10.0 mi SW 9.2 mph - N/A   Clear
1:13 AM 68.0 °F - 64.4 °F 88% 30.18 in 10.0 mi SW 8.1 mph - N/A   Clear
1:53 AM 68.0 °F - 66.2 °F 94% 30.18 in 10.0 mi WSW 11.5 mph - N/A   Clear
2:15 AM 68.0 °F - 66.2 °F 94% 30.17 in 10.0 mi WSW 11.5 mph - N/A   Clear
2:54 AM 66.2 °F - 64.4 °F 94% 30.17 in 10.0 mi WSW 10.4 mph - N/A   Clear
3:33 AM 68.0 °F - 64.4 °F 88% 30.17 in 10.0 mi WSW 8.1 mph - N/A   Clear
3:55 AM 66.2 °F - 62.6 °F 88% 30.17 in 10.0 mi WSW 6.9 mph - N/A   Clear
4:15 AM 66.2 °F - 64.4 °F 94% 30.17 in 10.0 mi West 5.8 mph - N/A   Clear
4:35 AM 66.2 °F - 64.4 °F 94% 30.17 in 10.0 mi West 5.8 mph - N/A   Clear
4:53 AM 68.0 °F - 64.4 °F 88% 30.17 in 10.0 mi West 9.2 mph - N/A   Clear
5:14 AM 68.0 °F - 64.4 °F 88% 30.17 in 10.0 mi West 8.1 mph - N/A   Clear
5:33 AM 66.2 °F - 64.4 °F 94% 30.18 in 10.0 mi West 5.8 mph - N/A   Clear
5:53 AM 68.0 °F - 64.4 °F 88% 30.18 in 10.0 mi West 10.4 mph - N/A   Clear
6:13 AM 68.0 °F - 64.4 °F 88% 30.19 in 10.0 mi West 8.1 mph - N/A   Clear
6:33 AM 66.2 °F - 64.4 °F 94% 30.19 in 10.0 mi West 8.1 mph - N/A   Clear
6:53 AM 66.2 °F - 64.4 °F 94% 30.19 in 10.0 mi West 6.9 mph - N/A   Clear
7:15 AM 68.0 °F - 64.4 °F 88% 30.19 in 10.0 mi West 6.9 mph - N/A   Clear
7:33 AM 69.8 °F - 64.4 °F 83% 30.19 in 7.0 mi Calm Calm - N/A   Clear
7:54 AM 69.8 °F - 64.4 °F 83% 30.20 in 10.0 mi West 6.9 mph - N/A   Clear
8:14 AM 69.8 °F - 64.4 °F 83% 30.21 in 10.0 mi Calm Calm - N/A   Clear
8:36 AM 69.8 °F - 66.2 °F 88% 30.21 in 10.0 mi Calm Calm - N/A   Clear
8:53 AM 71.6 °F - 64.4 °F 78% 30.20 in 10.0 mi Calm Calm - N/A   Clear
9:14 AM 71.6 °F - 64.4 °F 78% 30.21 in 10.0 mi Calm Calm - N/A   Clear
9:33 AM 73.4 °F - 64.4 °F 73% 30.22 in 10.0 mi North 4.6 mph - N/A   Clear
9:53 AM 73.4 °F - 66.2 °F 78% 30.22 in 10.0 mi NNW 3.5 mph - N/A   Clear
10:13 AM 75.2 °F - 64.4 °F 69% 30.22 in 10.0 mi North 5.8 mph - N/A   Clear
10:33 AM 75.2 °F - 66.2 °F 73% 30.23 in 10.0 mi NW 5.8 mph - N/A   Clear
10:53 AM 75.2 °F - 66.2 °F 73% 30.23 in 10.0 mi NW 3.5 mph - N/A   Clear
11:13 AM 77.0 °F - 62.6 °F 61% 30.24 in 10.0 mi NNW 4.6 mph - N/A   Clear
11:35 AM 77.0 °F - 62.6 °F 61% 30.24 in 10.0 mi Calm Calm - N/A   Clear
11:56 AM 77.0 °F - 66.2 °F 69% 30.24 in 10.0 mi Calm Calm - N/A   Clear
12:15 PM 78.8 °F - 62.6 °F 57% 30.24 in 10.0 mi Calm Calm - N/A   Clear
12:35 PM 77.0 °F - 62.6 °F 61% 30.23 in 10.0 mi Calm Calm - N/A   Scattered Clouds
12:54 PM 77.0 °F - 60.8 °F 57% 30.23 in 10.0 mi Calm Calm - N/A   Scattered Clouds
1:13 PM 77.0 °F - 62.6 °F 61% 30.23 in 10.0 mi Calm Calm - N/A   Mostly Cloudy
1:33 PM 77.0 °F - 64.4 °F 65% 30.23 in 10.0 mi Calm Calm - N/A   Overcast
1:53 PM 80.6 °F 82.3 °F 64.4 °F 58% 30.23 in 10.0 mi WSW 5.8 mph - N/A   Scattered Clouds
2:14 PM 78.8 °F - 64.4 °F 61% 30.22 in 10.0 mi Calm Calm - N/A   Clear
2:36 PM 80.6 °F 82.3 °F 64.4 °F 58% 30.22 in 10.0 mi SSE 8.1 mph - N/A   Scattered Clouds
2:55 PM 80.6 °F 82.3 °F 64.4 °F 58% 30.21 in 10.0 mi Calm Calm - N/A   Clear
3:15 PM 80.6 °F 82.3 °F 64.4 °F 58% 30.20 in 10.0 mi Calm Calm - N/A   Scattered Clouds
3:34 PM 80.6 °F 81.8 °F 62.6 °F 54% 30.20 in 10.0 mi South 4.6 mph - N/A   Scattered Clouds
3:53 PM 82.4 °F 83.4 °F 62.6 °F 51% 30.20 in 10.0 mi SW 5.8 mph - N/A   Scattered Clouds
4:13 PM 78.8 °F - 64.4 °F 61% 30.20 in 10.0 mi Calm Calm - N/A   Mostly Cloudy
4:33 PM 80.6 °F 82.3 °F 64.4 °F 58% 30.19 in 10.0 mi Calm Calm - N/A   Overcast
4:54 PM 80.6 °F 82.3 °F 64.4 °F 58% 30.19 in 10.0 mi SSW 4.6 mph - N/A Thunderstorm Scattered Clouds
5:15 PM 78.8 °F - 64.4 °F 61% 30.19 in 10.0 mi Calm Calm - N/A Thunderstorm Clear
5:33 PM 80.6 °F 82.7 °F 66.2 °F 61% 30.19 in 10.0 mi SSW 5.8 mph - N/A   Clear
6:13 PM 78.8 °F - 64.4 °F 61% 30.17 in 10.0 mi South 5.8 mph - N/A Thunderstorm Clear
6:35 PM 78.8 °F - 64.4 °F 61% 30.17 in 10.0 mi South 4.6 mph - N/A Thunderstorm Clear
6:53 PM 77.0 °F - 66.2 °F 69% 30.18 in 10.0 mi Calm Calm - N/A   Mostly Cloudy
7:14 PM 77.0 °F - 64.4 °F 65% 30.18 in 10.0 mi Calm Calm - N/A   Scattered Clouds
7:33 PM 75.2 °F - 64.4 °F 69% 30.18 in 10.0 mi Calm Calm - N/A   Clear
7:54 PM 73.4 °F - 64.4 °F 73% 30.19 in 10.0 mi Calm Calm - N/A   Clear
8:13 PM 73.4 °F - 64.4 °F 73% 30.19 in 10.0 mi Calm Calm - N/A   Scattered Clouds
8:34 PM 73.4 °F - 64.4 °F 73% 30.19 in 10.0 mi Calm Calm - N/A   Scattered Clouds
8:54 PM 73.4 °F - 66.2 °F 78% 30.19 in 10.0 mi Calm Calm - N/A   Scattered Clouds
9:15 PM 71.6 °F - 64.4 °F 78% 30.19 in 10.0 mi Calm Calm - N/A   Clear
9:56 PM 71.6 °F - 64.4 °F 78% 30.19 in 10.0 mi South 4.6 mph - N/A   Clear
10:14 PM 71.6 °F - 64.4 °F 78% 30.19 in 10.0 mi South 6.9 mph - N/A   Clear
10:35 PM 71.6 °F - 64.4 °F 78% 30.19 in 10.0 mi Calm Calm - N/A   Clear
10:55 PM 71.6 °F - 64.4 °F 78% 30.19 in 10.0 mi Calm Calm - N/A   Clear
11:14 PM 71.6 °F - 64.4 °F 78% 30.19 in 10.0 mi Calm Calm - N/A   Clear
11:54 PM 71.6 °F - 64.4 °F 78% 30.21 in 10.0 mi Calm Calm - N/A   Clear